Time,TemperatureF,DewpointF,PressureIn,WindDirection,WindDirectionDegrees,WindSpeedMPH,WindSpeedGustMPH,Humidity,HourlyPrecipIn,Conditions,Clouds,dailyrainin,SoftwareType,DateUTC
2013-01-22 00:01:00,33.0,32.0,30.09,North,0,0.0,2.0,97,0.00,,,0.00,,2013-01-22 08:01:00,
2013-01-22 00:11:00,33.0,32.0,30.09,North,0,0.0,2.0,97,0.00,,,0.00,,2013-01-22 08:11:00,
2013-01-22 00:22:00,33.0,32.0,30.09,North,0,0.0,2.0,97,0.00,,,0.00,,2013-01-22 08:22:00,
2013-01-22 00:32:00,33.0,32.0,30.07,North,0,0.0,4.0,97,0.00,,,0.00,,2013-01-22 08:32:00,
2013-01-22 00:42:00,33.0,32.0,30.07,North,0,0.0,4.0,97,0.00,,,0.00,,2013-01-22 08:42:00,
2013-01-22 00:52:00,33.0,32.0,30.07,SE,138,1.0,3.0,97,0.00,,,0.00,,2013-01-22 08:52:00,
2013-01-22 01:02:00,33.0,32.0,30.08,SE,133,1.0,3.0,97,0.00,,,0.00,,2013-01-22 09:02:00,
2013-01-22 01:11:00,33.0,32.0,30.08,SE,133,1.0,3.0,97,0.00,,,0.00,,2013-01-22 09:11:00,
2013-01-22 01:22:00,33.0,32.0,30.08,North,0,0.0,2.0,97,0.00,,,0.00,,2013-01-22 09:22:00,
2013-01-22 01:32:00,33.0,32.0,30.07,North,0,0.0,2.0,97,0.00,,,0.00,,2013-01-22 09:32:00,
2013-01-22 01:42:00,33.0,32.0,30.07,North,0,0.0,2.0,97,0.00,,,0.00,,2013-01-22 09:42:00,
2013-01-22 01:52:00,32.0,31.0,30.07,ESE,117,1.0,3.0,97,0.00,,,0.00,,2013-01-22 09:52:00,
2013-01-22 02:01:00,32.0,31.0,30.07,ESE,103,1.0,3.0,97,0.00,,,0.00,,2013-01-22 10:01:00,
2013-01-22 02:11:00,32.0,31.0,30.07,ESE,103,1.0,3.0,97,0.00,,,0.00,,2013-01-22 10:11:00,
2013-01-22 02:22:00,32.0,31.0,30.07,North,0,0.0,2.0,97,0.00,,,0.00,,2013-01-22 10:22:00,
2013-01-22 02:32:00,32.0,31.0,30.07,North,0,0.0,2.0,97,0.00,,,0.00,,2013-01-22 10:32:00,
2013-01-22 02:42:00,32.0,31.0,30.07,North,0,0.0,2.0,97,0.00,,,0.00,,2013-01-22 10:42:00,
2013-01-22 02:52:00,32.0,31.0,30.06,North,0,0.0,2.0,97,0.00,,,0.00,,2013-01-22 10:52:00,
2013-01-22 03:02:00,32.0,31.0,30.07,North,0,0.0,2.0,97,0.00,,,0.00,,2013-01-22 11:02:00,
2013-01-22 03:11:00,32.0,31.0,30.07,North,0,0.0,2.0,97,0.00,,,0.00,,2013-01-22 11:11:00,
2013-01-22 03:22:00,32.0,31.0,30.07,North,0,0.0,1.0,97,0.00,,,0.00,,2013-01-22 11:22:00,
2013-01-22 03:32:00,32.0,31.0,30.07,North,0,0.0,2.0,97,0.00,,,0.00,,2013-01-22 11:32:00,
2013-01-22 03:42:00,32.0,31.0,30.07,North,0,0.0,2.0,97,0.00,,,0.00,,2013-01-22 11:42:00,
2013-01-22 03:53:00,32.0,31.0,30.07,North,0,0.0,2.0,97,0.00,,,0.00,,2013-01-22 11:53:00,
2013-01-22 04:02:00,32.0,31.0,30.06,East,87,1.0,2.0,97,0.00,,,0.00,,2013-01-22 12:02:00,
2013-01-22 04:11:00,32.0,31.0,30.06,East,87,1.0,2.0,97,0.00,,,0.00,,2013-01-22 12:11:00,
2013-01-22 04:22:00,33.0,32.0,30.07,North,0,0.0,2.0,97,0.00,,,0.00,,2013-01-22 12:22:00,
2013-01-22 04:32:00,33.0,32.0,30.07,North,0,0.0,2.0,97,0.00,,,0.00,,2013-01-22 12:32:00,
2013-01-22 04:42:00,33.0,32.0,30.07,North,0,0.0,2.0,97,0.00,,,0.00,,2013-01-22 12:42:00,
2013-01-22 04:53:00,33.0,32.0,30.06,North,0,0.0,3.0,97,0.00,,,0.00,,2013-01-22 12:53:00,
2013-01-22 05:02:00,33.0,32.0,30.05,North,0,0.0,2.0,97,0.00,,,0.00,,2013-01-22 13:02:00,
2013-01-22 05:11:00,33.0,32.0,30.05,North,0,0.0,2.0,97,0.00,,,0.00,,2013-01-22 13:11:00,
2013-01-22 05:22:00,33.0,32.0,30.05,North,0,0.0,0.0,97,0.00,,,0.00,,2013-01-22 13:22:00,
2013-01-22 05:32:00,33.0,32.0,30.05,North,0,0.0,3.0,97,0.00,,,0.00,,2013-01-22 13:32:00,
2013-01-22 05:42:00,33.0,32.0,30.05,North,0,0.0,3.0,97,0.00,,,0.00,,2013-01-22 13:42:00,
2013-01-22 05:53:00,32.0,31.0,30.04,North,0,0.0,2.0,97,0.00,,,0.00,,2013-01-22 13:53:00,
2013-01-22 06:02:00,32.0,31.0,30.04,North,0,0.0,2.0,97,0.00,,,0.00,,2013-01-22 14:02:00,
2013-01-22 06:12:00,32.0,31.0,30.04,North,0,0.0,2.0,97,0.00,,,0.00,,2013-01-22 14:12:00,
2013-01-22 06:22:00,32.0,31.0,30.03,North,0,0.0,0.0,97,0.00,,,0.00,,2013-01-22 14:22:00,
2013-01-22 06:33:00,32.0,31.0,30.04,North,0,0.0,0.0,97,0.00,,,0.00,,2013-01-22 14:33:00,
2013-01-22 06:42:00,32.0,31.0,30.04,North,0,0.0,0.0,97,0.00,,,0.00,,2013-01-22 14:42:00,
2013-01-22 06:53:00,32.0,31.0,30.03,North,0,0.0,0.0,97,0.00,,,0.00,,2013-01-22 14:53:00,
2013-01-22 07:02:00,32.0,32.0,30.02,North,0,0.0,1.0,98,0.00,,,0.00,,2013-01-22 15:02:00,
2013-01-22 07:12:00,32.0,32.0,30.02,North,0,0.0,1.0,98,0.00,,,0.00,,2013-01-22 15:12:00,
2013-01-22 07:22:00,33.0,32.0,30.03,North,0,0.0,0.0,98,0.00,,,0.00,,2013-01-22 15:22:00,
2013-01-22 07:33:00,33.0,32.0,30.02,North,0,0.0,0.0,98,0.00,,,0.00,,2013-01-22 15:33:00,
2013-01-22 07:42:00,33.0,32.0,30.02,North,0,0.0,0.0,98,0.00,,,0.00,,2013-01-22 15:42:00,
2013-01-22 07:53:00,33.0,32.0,30.02,North,0,0.0,1.0,98,0.00,,,0.00,,2013-01-22 15:53:00,
2013-01-22 08:02:00,33.0,32.0,30.02,North,0,0.0,0.0,98,0.00,,,0.00,,2013-01-22 16:02:00,
2013-01-22 08:12:00,33.0,32.0,30.02,North,0,0.0,0.0,98,0.00,,,0.00,,2013-01-22 16:12:00,
2013-01-22 08:22:00,33.0,32.0,30.02,North,0,0.0,1.0,98,0.00,,,0.00,,2013-01-22 16:22:00,
2013-01-22 08:32:00,33.0,32.0,30.02,North,0,0.0,1.0,98,0.00,,,0.00,,2013-01-22 16:32:00,
2013-01-22 08:42:00,33.0,32.0,30.02,North,0,0.0,1.0,98,0.00,,,0.00,,2013-01-22 16:42:00,
2013-01-22 08:53:00,32.0,32.0,30.01,North,0,0.0,2.0,98,0.00,,,0.00,,2013-01-22 16:53:00,
2013-01-22 09:03:00,32.0,32.0,30.01,North,0,0.0,2.0,98,0.00,,,0.00,,2013-01-22 17:03:00,
2013-01-22 09:12:00,32.0,32.0,30.01,North,0,0.0,2.0,98,0.00,,,0.00,,2013-01-22 17:12:00,
2013-01-22 09:22:00,32.0,32.0,30.02,North,0,0.0,2.0,98,0.00,,,0.00,,2013-01-22 17:22:00,
2013-01-22 09:32:00,32.0,32.0,30.02,North,0,0.0,2.0,98,0.00,,,0.00,,2013-01-22 17:32:00,
2013-01-22 09:43:00,32.0,32.0,30.02,North,0,0.0,2.0,98,0.00,,,0.00,,2013-01-22 17:43:00,
2013-01-22 09:53:00,32.0,32.0,30.01,North,0,0.0,2.0,98,0.00,,,0.00,,2013-01-22 17:53:00,
2013-01-22 10:02:00,32.0,32.0,30.02,North,0,0.0,1.0,98,0.00,,,0.00,,2013-01-22 18:02:00,
2013-01-22 10:12:00,32.0,32.0,30.02,North,0,0.0,1.0,98,0.00,,,0.00,,2013-01-22 18:12:00,
2013-01-22 10:22:00,32.0,32.0,30.01,East,87,1.0,3.0,98,0.00,,,0.00,,2013-01-22 18:22:00,
2013-01-22 10:33:00,33.0,32.0,30.01,North,0,0.0,2.0,98,0.00,,,0.00,,2013-01-22 18:33:00,
2013-01-22 10:42:00,33.0,32.0,30.01,North,0,0.0,2.0,98,0.00,,,0.00,,2013-01-22 18:42:00,
2013-01-22 10:53:00,33.0,32.0,30.01,North,0,0.0,2.0,98,0.00,,,0.00,,2013-01-22 18:53:00,
2013-01-22 11:02:00,33.0,32.0,30.01,North,0,0.0,2.0,98,0.00,,,0.00,,2013-01-22 19:02:00,
2013-01-22 11:12:00,33.0,32.0,30.01,North,0,0.0,2.0,98,0.00,,,0.00,,2013-01-22 19:12:00,
2013-01-22 11:22:00,34.0,34.0,30.01,North,0,0.0,2.0,98,0.00,,,0.00,,2013-01-22 19:22:00,
2013-01-22 11:32:00,34.0,34.0,30.01,North,0,0.0,1.0,98,0.00,,,0.00,,2013-01-22 19:32:00,
2013-01-22 11:42:00,34.0,34.0,30.01,North,0,0.0,1.0,98,0.00,,,0.00,,2013-01-22 19:42:00,
2013-01-22 11:53:00,35.0,34.0,30.01,North,0,0.0,1.0,98,0.00,,,0.00,,2013-01-22 19:53:00,
2013-01-22 12:02:00,36.0,35.0,30.01,SW,233,2.0,4.0,98,0.00,,,0.00,,2013-01-22 20:02:00,
2013-01-22 12:12:00,36.0,35.0,30.01,SW,233,2.0,4.0,98,0.00,,,0.00,,2013-01-22 20:12:00,
2013-01-22 12:22:00,36.0,35.0,30.00,North,0,0.0,2.0,98,0.00,,,0.00,,2013-01-22 20:22:00,
2013-01-22 12:32:00,36.0,35.0,29.99,North,0,0.0,2.0,98,0.00,,,0.00,,2013-01-22 20:32:00,
2013-01-22 12:42:00,36.0,35.0,29.99,North,0,0.0,2.0,98,0.00,,,0.00,,2013-01-22 20:42:00,
2013-01-22 12:53:00,37.0,36.0,29.99,North,0,0.0,1.0,98,0.00,,,0.00,,2013-01-22 20:53:00,
2013-01-22 13:02:00,37.0,36.0,29.98,ESE,121,1.0,3.0,98,0.00,,,0.00,,2013-01-22 21:02:00,
2013-01-22 13:12:00,37.0,36.0,29.98,ESE,121,1.0,3.0,98,0.00,,,0.00,,2013-01-22 21:12:00,
2013-01-22 13:22:00,39.0,38.0,29.98,North,0,0.0,3.0,98,0.00,,,0.00,,2013-01-22 21:22:00,
2013-01-22 13:33:00,39.0,38.0,29.97,North,0,0.0,3.0,96,0.00,,,0.00,,2013-01-22 21:33:00,
2013-01-22 13:43:00,39.0,38.0,29.97,North,0,0.0,3.0,96,0.00,,,0.00,,2013-01-22 21:43:00,
2013-01-22 13:53:00,38.0,37.0,29.96,North,0,0.0,3.0,96,0.00,,,0.00,,2013-01-22 21:53:00,
2013-01-22 14:02:00,38.0,37.0,29.96,ESE,116,2.0,5.0,95,0.00,,,0.00,,2013-01-22 22:02:00,
2013-01-22 14:12:00,38.0,37.0,29.96,ESE,116,2.0,5.0,95,0.00,,,0.00,,2013-01-22 22:12:00,
2013-01-22 14:22:00,39.0,37.0,29.96,North,0,0.0,3.0,92,0.00,,,0.00,,2013-01-22 22:22:00,
2013-01-22 14:32:00,39.0,37.0,29.96,North,0,0.0,3.0,92,0.00,,,0.00,,2013-01-22 22:32:00,
2013-01-22 14:42:00,39.0,37.0,29.95,SSE,159,1.0,3.0,91,0.00,,,0.00,,2013-01-22 22:42:00,
2013-01-22 14:53:00,39.0,36.0,29.95,North,0,0.0,4.0,89,0.00,,,0.00,,2013-01-22 22:53:00,
2013-01-22 15:02:00,39.0,36.0,29.94,North,0,0.0,2.0,89,0.00,,,0.00,,2013-01-22 23:02:00,
2013-01-22 15:12:00,39.0,36.0,29.94,North,0,0.0,2.0,89,0.00,,,0.00,,2013-01-22 23:12:00,
2013-01-22 15:22:00,39.0,36.0,29.94,North,0,0.0,3.0,88,0.00,,,0.00,,2013-01-22 23:22:00,
2013-01-22 15:32:00,39.0,36.0,29.93,North,0,0.0,3.0,88,0.00,,,0.00,,2013-01-22 23:32:00,
2013-01-22 15:42:00,39.0,36.0,29.93,North,0,0.0,3.0,88,0.00,,,0.00,,2013-01-22 23:42:00,
2013-01-22 15:53:00,39.0,35.0,29.93,North,0,0.0,3.0,87,0.00,,,0.00,,2013-01-22 23:53:00,
2013-01-22 16:02:00,39.0,35.0,29.93,SW,215,2.0,4.0,87,0.00,,,0.00,,2013-01-23 00:02:00,
2013-01-22 16:12:00,39.0,35.0,29.93,SW,215,2.0,4.0,87,0.00,,,0.00,,2013-01-23 00:12:00,
2013-01-22 16:22:00,39.0,36.0,29.93,SSW,198,3.0,5.0,88,0.00,,,0.00,,2013-01-23 00:22:00,
2013-01-22 16:32:00,39.0,36.0,29.91,North,0,0.0,3.0,90,0.00,,,0.00,,2013-01-23 00:32:00,
2013-01-22 16:42:00,39.0,36.0,29.91,North,0,0.0,3.0,90,0.00,,,0.00,,2013-01-23 00:42:00,
2013-01-22 16:52:00,38.0,36.0,29.91,WSW,248,2.0,4.0,91,0.00,,,0.00,,2013-01-23 00:52:00,
2013-01-22 17:02:00,38.0,36.0,29.91,SSW,200,1.0,3.0,91,0.00,,,0.00,,2013-01-23 01:02:00,
2013-01-22 17:12:00,38.0,36.0,29.91,SSW,200,1.0,3.0,91,0.00,,,0.00,,2013-01-23 01:12:00,
2013-01-22 17:22:00,38.0,36.0,29.91,SSW,200,1.0,3.0,92,0.00,,,0.00,,2013-01-23 01:22:00,
2013-01-22 17:32:00,38.0,36.0,29.91,North,0,0.0,1.0,92,0.00,,,0.00,,2013-01-23 01:32:00,
2013-01-22 17:42:00,38.0,36.0,29.91,North,0,0.0,1.0,92,0.00,,,0.00,,2013-01-23 01:42:00,
2013-01-22 17:52:00,38.0,36.0,29.90,North,0,0.0,1.0,92,0.00,,,0.00,,2013-01-23 01:52:00,
2013-01-22 18:02:00,38.0,36.0,29.90,North,0,0.0,3.0,93,0.00,,,0.00,,2013-01-23 02:02:00,
2013-01-22 18:12:00,38.0,36.0,29.90,North,0,0.0,3.0,93,0.00,,,0.00,,2013-01-23 02:12:00,
2013-01-22 18:22:00,38.0,36.0,29.90,North,0,0.0,2.0,92,0.00,,,0.00,,2013-01-23 02:22:00,
2013-01-22 18:32:00,38.0,36.0,29.90,North,0,0.0,3.0,92,0.00,,,0.00,,2013-01-23 02:32:00,
2013-01-22 18:42:00,38.0,36.0,29.90,North,0,0.0,3.0,92,0.00,,,0.00,,2013-01-23 02:42:00,
2013-01-22 18:53:00,38.0,36.0,29.90,North,0,0.0,4.0,92,0.00,,,0.00,,2013-01-23 02:53:00,
2013-01-22 19:02:00,38.0,36.0,29.90,SE,143,1.0,3.0,92,0.00,,,0.00,,2013-01-23 03:02:00,
2013-01-22 19:12:00,38.0,36.0,29.90,SE,143,1.0,3.0,92,0.00,,,0.00,,2013-01-23 03:12:00,
2013-01-22 19:22:00,38.0,36.0,29.88,North,0,0.0,0.0,93,0.00,,,0.00,,2013-01-23 03:22:00,
2013-01-22 19:32:00,38.0,36.0,29.88,North,0,0.0,1.0,92,0.00,,,0.00,,2013-01-23 03:32:00,
2013-01-22 19:42:00,38.0,36.0,29.88,North,0,0.0,1.0,92,0.00,,,0.00,,2013-01-23 03:42:00,
2013-01-22 19:53:00,38.0,36.0,29.88,ESE,112,2.0,3.0,92,0.00,,,0.00,,2013-01-23 03:53:00,
2013-01-22 20:02:00,38.0,36.0,29.88,ESE,106,1.0,3.0,92,0.00,,,0.00,,2013-01-23 04:02:00,
2013-01-22 20:12:00,38.0,36.0,29.88,ESE,106,1.0,3.0,92,0.00,,,0.00,,2013-01-23 04:12:00,
2013-01-22 20:22:00,38.0,36.0,29.88,ESE,106,1.0,3.0,92,0.00,,,0.00,,2013-01-23 04:22:00,
2013-01-22 20:32:00,38.0,36.0,29.88,North,0,0.0,1.0,91,0.00,,,0.00,,2013-01-23 04:32:00,
2013-01-22 20:42:00,38.0,36.0,29.88,North,0,0.0,1.0,91,0.00,,,0.00,,2013-01-23 04:42:00,
2013-01-22 20:53:00,38.0,36.0,29.88,ESE,106,1.0,2.0,91,0.00,,,0.00,,2013-01-23 04:53:00,
2013-01-22 21:03:00,38.0,35.0,29.87,North,0,0.0,1.0,90,0.00,,,0.00,,2013-01-23 05:03:00,
2013-01-22 21:12:00,38.0,35.0,29.87,North,0,0.0,1.0,90,0.00,,,0.00,,2013-01-23 05:12:00,
2013-01-22 21:22:00,38.0,35.0,29.88,North,0,0.0,1.0,90,0.00,,,0.00,,2013-01-23 05:22:00,
2013-01-22 21:32:00,38.0,35.0,29.88,North,0,0.0,1.0,90,0.00,,,0.00,,2013-01-23 05:32:00,
2013-01-22 21:43:00,38.0,35.0,29.88,North,0,0.0,1.0,90,0.00,,,0.00,,2013-01-23 05:43:00,
2013-01-22 21:52:00,38.0,35.0,29.88,North,0,0.0,1.0,90,0.00,,,0.00,,2013-01-23 05:52:00,
2013-01-22 22:02:00,38.0,35.0,29.86,North,0,0.0,1.0,90,0.00,,,0.00,,2013-01-23 06:02:00,
2013-01-22 22:12:00,38.0,35.0,29.86,North,0,0.0,1.0,90,0.00,,,0.00,,2013-01-23 06:12:00,
2013-01-22 22:22:00,38.0,35.0,29.85,North,0,0.0,2.0,90,0.00,,,0.00,,2013-01-23 06:22:00,
2013-01-22 22:32:00,38.0,35.0,29.86,North,0,0.0,2.0,90,0.00,,,0.00,,2013-01-23 06:32:00,
2013-01-22 22:42:00,38.0,35.0,29.86,North,0,0.0,2.0,90,0.00,,,0.00,,2013-01-23 06:42:00,
2013-01-22 22:52:00,38.0,35.0,29.85,North,0,0.0,0.0,90,0.00,,,0.00,,2013-01-23 06:52:00,
2013-01-22 23:02:00,39.0,36.0,29.85,North,0,0.0,2.0,88,0.00,,,0.00,,2013-01-23 07:02:00,
2013-01-22 23:11:00,39.0,36.0,29.85,North,0,0.0,2.0,88,0.00,,,0.00,,2013-01-23 07:11:00,
2013-01-22 23:22:00,39.0,35.0,29.86,North,0,0.0,1.0,87,0.00,,,0.00,,2013-01-23 07:22:00,
2013-01-22 23:33:00,39.0,36.0,29.85,SSW,199,1.0,3.0,88,0.00,,,0.00,,2013-01-23 07:33:00,
2013-01-22 23:42:00,39.0,36.0,29.85,SSW,199,1.0,3.0,88,0.00,,,0.00,,2013-01-23 07:42:00,
2013-01-22 23:52:00,40.0,37.0,29.86,South,181,2.0,5.0,90,0.00,,,0.00,,2013-01-23 07:52:00,